Location: Shannon
(40.5500°S, 175.4167°E)
Time: 07:55:18
(UTC+00:00)

Cosmos 1339 Rocket - Pass Details

Date: 17 November 2025
Orbit: 941 x 1005 km, 82.9° (Epoch: 14 December)

Event Time Altitude Azimuth Distance (km) Brightness Sun altitude
Rises 13:25:03 0° 190° (S) 3,646 8.4 -27.4°
Reaches altitude 10° 13:27:33 10° 191° (S) 2,698 7.5 -27.2°
Maximum altitude 13:33:42 73° 274° (W) 1,004 4.4 -26.7°
Enters shadow 13:34:16 68° 315° (NW) 1,031 4.3 -26.7°
